Regional Weather Roundup
Issued by NWS Little Rock, AR

Home | Current Version | Previous Version | Text Only | Print | Product List | Glossary Off
Versions: 1 2 3 4 5 6 7 8 9 10 11 12 13 14 15 16 17 18 19 20 21 22 23 24 25 26 27 28 29 30 31 32 33 34 35 36 37 38 39 40 41 42 43 44 45 46 47 48 49 50

000
ASUS44 KLZK 051505
RWRLZK

WEATHER ROUNDUP FOR ARKANSAS
NATIONAL WEATHER SERVICE LITTLE ROCK AR
1000 AM CDT TUE MAY 05 2015

NOTE: "FAIR" INDICATES FEW OR NO CLOUDS BELOW 12,000 FEET WITH NO
SIGNIFICANT WEATHER AND/OR OBSTRUCTIONS TO VISIBILITY.

ARZ001-003-010-029-051600-
NORTHWEST ARKANSAS

CITY           SKY/WX    TMP DP  RH WIND       PRES   REMARKS
FAYETTEVILLE   MOSUNNY   72  64  76 S18G25    30.15S
FORT SMITH     MOSUNNY   75  62  64 SE9       30.12F
HARRISON       PTSUNNY   71  62  73 S8        30.19S
BENTONVILLE    MOSUNNY   72  59  64 S10G21    30.16S
ROGERS         MOSUNNY   71  61  70 SE12      30.16S
SILOAM SPGS    CLOUDY    72  59  64 S13       30.16R
SPRINGDALE     PTSUNNY   70  61  73 SE9       30.17S
$$

ARZ004-005-016-051600-
NORTH CENTRAL ARKANSAS

CITY           SKY/WX    TMP DP  RH WIND       PRES   REMARKS
BATESVILLE     PTSUNNY   73  63  68 S7        30.21R
FLIPPIN        SUNNY     72  63  73 SE3       30.17F
MTN HOME       MOSUNNY   72  62  71 S8        30.19R
$$

ARZ040-041-051600-
WEST CENTRAL ARKANSAS

CITY           SKY/WX    TMP DP  RH WIND       PRES   REMARKS
MENA           PTSUNNY   73  64  73 SE8       30.16S
MOUNT IDA      MOSUNNY   73  63  70 SE8       30.15R
$$

ARZ009-017-025-026-028-051600-
NORTHEAST ARKANSAS

CITY           SKY/WX    TMP DP  RH WIND       PRES   REMARKS
CORNING          N/A     77  61  57 SW8       30.22S
JONESBORO      SUNNY     75  63  66 SW12      30.21F
NEWPORT        SUNNY     78  62  57 S7        30.22S
WALNUT RIDGE   SUNNY     73  59  60 SW8       30.21S
BLYTHEVILLE    MOSUNNY   77  62  59 SW10      30.23F
NW BLYTHEVILLE MOSUNNY   79  61  53 SW12      30.23S
$$

ARZ022-023-033-042-044-051600-
CENTRAL ARKANSAS

CITY           SKY/WX    TMP DP  RH WIND       PRES   REMARKS
LITTLE ROCK    MOSUNNY   77  57  50 SE10      30.19S
N LITTLE ROCK  MOSUNNY   75  64  69 S7        30.19S
SEARCY         CLOUDY    77  64  64 SE9       30.21F
HOT SPRINGS    PTSUNNY   75  62  64 S9        30.17S
RUSSELLVILLE   MOSUNNY   74  64  71 VRB3      30.17S
CLINTON        PTSUNNY   72  64  78 CALM      30.21S
$$

ARZ036-051600-
EAST ARKANSAS

CITY           SKY/WX    TMP DP  RH WIND       PRES   REMARKS
WEST MEMPHIS   CLOUDY    77  62  59 S10       30.22S
$$

ARZ050-053-066-070-073-051600-
SOUTHWEST ARKANSAS

CITY           SKY/WX    TMP DP  RH WIND       PRES   REMARKS
ARKADELPHIA    FAIR      76  64  66 S6        30.17S
CAMDEN         PTSUNNY   75  59  57 NE8       30.17S
TEXARKANA      CLOUDY    72  65  78 S16G23    30.14S
EL DORADO      PTSUNNY   74  61  63 SE13      30.17F
DE QUEEN       CLOUDY    71  65  81 S8        30.13R
$$

ARZ056-057-069-051600-
SOUTHEAST ARKANSAS

CITY           SKY/WX    TMP DP  RH WIND       PRES   REMARKS
PINE BLUFF     SUNNY     76  59  55 S14       30.19S
STUTTGART      MOSUNNY   79  59  50 SE13      30.21R
MONTICELLO     SUNNY     76  61  59 SE10      30.19F

$$





USA.gov is the U.S. government's official web portal to all federal, state and local government web resources and services.